Location: ???????????
(55.5758°N, 38.4970°E)
Time: 17:44:16
(UTC+00:00)

PAYLOAD A - Pass Details

Date: 15 November 2025
Orbit: 690 x 828 km, 98.6° (Epoch: 14 December)

Event Time Altitude Azimuth Distance (km) Brightness Sun altitude
Rises 02:53:20 0° 13° (NNE) 3,381 7.4 -17.6°
Reaches altitude 10° 02:55:49 10° 7° (N) 2,437 6.6 -17.3°
Maximum altitude 03:00:52 42° 299° (WNW) 1,149 4.5 -16.5°
Enters shadow 03:05:43 10° 230° (SW) 2,349 6.1 -15.9°
